TimeCST,TemperatureF,Dew PointF,Humidity,Sea Level PressureIn,VisibilityMPH,Wind Direction,Wind SpeedMPH,Gust SpeedMPH,PrecipitationIn,Events,Conditions,WindDirDegrees,DateUTC
12:09 AM,14.0,10.4,86,30.23,10.0,ENE,10.4,-,N/A,,Overcast,60,2012-11-30 06:09:00
12:28 AM,14.0,10.4,86,30.23,10.0,ENE,9.2,-,N/A,,Overcast,70,2012-11-30 06:28:00
12:49 AM,14.0,10.4,86,30.22,10.0,ENE,9.2,-,N/A,,Overcast,60,2012-11-30 06:49:00
1:09 AM,14.0,10.4,86,30.21,10.0,ENE,10.4,-,N/A,,Overcast,70,2012-11-30 07:09:00
1:29 AM,14.0,10.4,86,30.22,10.0,East,9.2,-,N/A,,Overcast,80,2012-11-30 07:29:00
1:49 AM,14.0,10.4,86,30.21,10.0,East,8.1,-,N/A,,Overcast,80,2012-11-30 07:49:00
2:08 AM,15.8,12.2,86,30.19,10.0,East,12.7,18.4,N/A,,Overcast,80,2012-11-30 08:08:00
2:29 AM,15.8,12.2,86,30.19,10.0,East,11.5,17.3,N/A,,Overcast,90,2012-11-30 08:29:00
2:49 AM,15.8,12.2,86,30.18,10.0,East,11.5,-,N/A,,Overcast,90,2012-11-30 08:49:00
3:08 AM,15.8,12.2,86,30.19,10.0,East,8.1,-,N/A,,Overcast,80,2012-11-30 09:08:00
3:29 AM,15.8,12.2,86,30.19,10.0,East,8.1,-,N/A,,Overcast,80,2012-11-30 09:29:00
3:49 AM,15.8,12.2,86,30.18,10.0,East,5.8,-,N/A,,Overcast,100,2012-11-30 09:49:00
4:08 AM,15.8,12.2,86,30.19,10.0,East,3.5,-,N/A,,Overcast,80,2012-11-30 10:08:00
4:29 AM,15.8,12.2,86,30.19,10.0,East,4.6,-,N/A,,Overcast,80,2012-11-30 10:29:00
4:49 AM,15.8,14.0,93,30.18,10.0,East,4.6,-,N/A,,Overcast,90,2012-11-30 10:49:00
5:08 AM,15.8,14.0,93,30.18,10.0,East,5.8,-,N/A,,Overcast,80,2012-11-30 11:08:00
5:29 AM,15.8,14.0,93,30.19,10.0,East,8.1,-,N/A,,Overcast,80,2012-11-30 11:29:00
5:49 AM,15.8,14.0,93,30.18,10.0,East,6.9,-,N/A,,Overcast,90,2012-11-30 11:49:00
6:08 AM,17.6,14.0,86,30.18,10.0,East,4.6,-,N/A,,Overcast,90,2012-11-30 12:08:00
6:29 AM,17.6,14.0,86,30.16,10.0,East,6.9,-,N/A,,Overcast,90,2012-11-30 12:29:00
6:49 AM,17.6,14.0,86,30.15,10.0,East,8.1,-,N/A,,Overcast,90,2012-11-30 12:49:00
7:08 AM,17.6,14.0,86,30.17,10.0,ENE,3.5,-,N/A,,Overcast,70,2012-11-30 13:08:00
7:29 AM,17.6,15.8,93,30.16,10.0,East,5.8,-,N/A,,Overcast,80,2012-11-30 13:29:00
7:49 AM,17.6,15.8,93,30.16,10.0,East,4.6,-,N/A,,Overcast,100,2012-11-30 13:49:00
8:08 AM,17.6,15.8,93,30.16,10.0,East,6.9,-,N/A,,Overcast,90,2012-11-30 14:08:00
8:29 AM,19.4,15.8,86,30.16,10.0,East,6.9,-,N/A,,Overcast,90,2012-11-30 14:29:00
8:49 AM,19.4,15.8,86,30.16,10.0,East,6.9,-,N/A,,Overcast,100,2012-11-30 14:49:00
9:08 AM,19.4,17.6,93,30.16,10.0,ESE,8.1,-,N/A,,Overcast,110,2012-11-30 15:08:00
9:29 AM,21.2,17.6,86,30.16,10.0,East,6.9,-,N/A,,Overcast,100,2012-11-30 15:29:00
9:49 AM,21.2,17.6,86,30.16,10.0,ESE,4.6,-,N/A,,Overcast,110,2012-11-30 15:49:00
10:09 AM,21.2,19.4,93,30.15,10.0,East,6.9,-,N/A,,Overcast,100,2012-11-30 16:09:00
10:29 AM,23.0,19.4,86,30.17,10.0,ESE,4.6,-,N/A,,Overcast,110,2012-11-30 16:29:00
10:48 AM,24.8,19.4,80,30.17,10.0,ESE,5.8,-,N/A,,Overcast,120,2012-11-30 16:48:00
11:09 AM,24.8,19.4,80,30.13,10.0,East,8.1,-,N/A,,Overcast,90,2012-11-30 17:09:00
11:28 AM,24.8,21.2,86,30.12,10.0,ESE,5.8,-,N/A,,Overcast,110,2012-11-30 17:28:00
11:49 AM,24.8,21.2,86,30.12,10.0,ESE,4.6,-,N/A,,Overcast,110,2012-11-30 17:49:00
12:09 PM,26.6,21.2,80,30.10,10.0,ESE,4.6,-,N/A,,Overcast,110,2012-11-30 18:09:00
12:28 PM,26.6,23.0,86,30.10,10.0,SE,5.8,-,N/A,,Overcast,130,2012-11-30 18:28:00
12:45 PM,26.6,23.0,86,30.09,10.0,SE,5.8,-,N/A,,Overcast,130,2012-11-30 18:45:00
1:09 PM,28.4,24.8,86,30.10,10.0,SE,4.6,-,N/A,,Overcast,130,2012-11-30 19:09:00
1:28 PM,28.4,24.8,86,30.10,10.0,SSE,5.8,-,N/A,,Overcast,150,2012-11-30 19:28:00
1:49 PM,28.4,24.8,86,30.09,10.0,SE,3.5,-,N/A,,Overcast,130,2012-11-30 19:49:00
2:09 PM,28.4,24.8,86,30.09,10.0,Calm,Calm,-,N/A,,Overcast,0,2012-11-30 20:09:00
2:28 PM,28.4,24.8,86,30.08,10.0,SE,3.5,-,N/A,,Overcast,130,2012-11-30 20:28:00
2:49 PM,28.4,24.8,86,30.08,10.0,Calm,Calm,-,N/A,,Overcast,0,2012-11-30 20:49:00
3:09 PM,30.2,26.6,86,30.08,10.0,Calm,Calm,-,N/A,,Overcast,0,2012-11-30 21:09:00
3:28 PM,30.2,26.6,86,30.08,10.0,Calm,Calm,-,N/A,,Overcast,0,2012-11-30 21:28:00
3:49 PM,28.4,26.6,93,30.05,10.0,ESE,6.9,-,N/A,,Overcast,120,2012-11-30 21:49:00
4:09 PM,28.4,26.6,93,30.04,10.0,ESE,8.1,-,N/A,,Overcast,120,2012-11-30 22:09:00
4:28 PM,28.4,26.6,93,30.03,10.0,SE,6.9,-,N/A,,Overcast,130,2012-11-30 22:28:00
4:49 PM,30.2,26.6,86,30.04,10.0,SE,4.6,-,N/A,,Overcast,130,2012-11-30 22:49:00
5:09 PM,30.2,26.6,86,30.03,10.0,SE,5.8,-,N/A,,Overcast,140,2012-11-30 23:09:00
5:28 PM,30.2,26.6,86,30.03,10.0,SE,5.8,-,N/A,,Overcast,130,2012-11-30 23:28:00
5:49 PM,28.4,26.6,93,30.00,10.0,SE,8.1,-,N/A,,Overcast,130,2012-11-30 23:49:00
6:09 PM,28.4,26.6,93,30.01,10.0,SE,6.9,-,N/A,,Overcast,140,2012-12-01 00:09:00
6:28 PM,28.4,26.6,93,30.00,10.0,SE,10.4,-,N/A,,Overcast,130,2012-12-01 00:28:00
6:49 PM,28.4,26.6,93,29.99,10.0,SE,8.1,-,N/A,,Overcast,130,2012-12-01 00:49:00
7:09 PM,28.4,26.6,93,29.99,10.0,SE,10.4,-,N/A,,Overcast,130,2012-12-01 01:09:00
7:28 PM,28.4,26.6,93,29.99,10.0,SE,10.4,-,N/A,,Overcast,140,2012-12-01 01:28:00
7:49 PM,28.4,26.6,93,29.98,10.0,SE,9.2,-,N/A,,Overcast,140,2012-12-01 01:49:00
8:09 PM,28.4,26.6,93,29.98,7.0,SE,10.4,-,N/A,,Overcast,140,2012-12-01 02:09:00
8:29 PM,28.4,26.6,93,29.96,7.0,SE,10.4,17.3,N/A,,Overcast,140,2012-12-01 02:29:00
9:09 PM,28.4,26.6,93,29.94,7.0,SE,12.7,17.3,N/A,,Overcast,130,2012-12-01 03:09:00
9:29 PM,28.4,26.6,93,29.94,7.0,SE,9.2,-,N/A,,Overcast,130,2012-12-01 03:29:00
9:49 PM,30.2,26.6,86,29.93,7.0,SE,11.5,18.4,N/A,,Overcast,130,2012-12-01 03:49:00
10:08 PM,30.2,26.6,86,29.93,7.0,SE,6.9,-,N/A,,Overcast,140,2012-12-01 04:08:00
10:29 PM,30.2,26.6,86,29.94,7.0,SE,8.1,-,N/A,,Overcast,140,2012-12-01 04:29:00
11:08 PM,30.2,28.4,93,29.94,7.0,SE,9.2,-,N/A,,Overcast,140,2012-12-01 05:08:00
11:29 PM,30.2,28.4,93,29.94,7.0,SSE,3.5,-,N/A,,Overcast,160,2012-12-01 05:29:00